Location: Aalen
(48.8330°N, 10.1000°E)
Time: 20:06:17
(UTC+02:00)

S-56A Canister/Altair - Pass Details

Date: 08 August 2021
Orbit: 632 x 2500 km, 38.9° (Epoch: 19 September)

Event Time Altitude Azimuth Distance (km) Brightness Sun altitude
Rises 15:19:31 0° 245° (WSW) 4,981 12.3 49.7°
Reaches altitude 10° 15:22:32 10° 241° (WSW) 4,214 12.2 49.4°
Maximum altitude 15:34:03 54° 169° (S) 2,667 11.3 48.0°
Drops below altitude 10° 15:48:23 10° 99° (E) 5,166 11.5 46.1°
Sets 15:52:31 0° 95° (E) 6,149 11.8 45.5°
